DateTimeUTC,F1_A11,F1_S11,BsB_S11,BsG_S11,BsR_S11,BbsB_S11,BbsG_S11,BbsR_S11,BaB_A11,BaG_A11,BaR_A11,Tu_S11,T_S11,Uu_S11,U_S11,P_S11,T1_A11
2021-06-05T09:00:00Z,00000200,20000000,,,,,,,-000.15,-000.09,0000.02,16.8,23.6,06.2,04.1,0675.9,30.9
2021-06-05T09:01:00Z,00000200,20000000,,,,,,,0000.28,-000.03,-000.19,16.8,23.6,06.3,04.1,0675.9,30.9
2021-06-05T09:02:00Z,00000200,20000000,,,,,,,-000.36,0000.16,-000.03,16.8,23.7,06.3,04.1,0675.9,30.9
2021-06-05T09:03:00Z,00000200,60000000,,,,,,,0000.80,0000.19,0000.55,16.8,23.7,06.3,04.1,0675.9,30.9
2021-06-05T09:04:00Z,00000200,40000000,0000.74,0000.93,0000.19,0000.89,0000.13,0000.22,0000.11,0000.21,0000.19,16.9,23.5,06.4,04.3,0676.8,30.9
2021-06-05T09:05:00Z,00000200,00000000,0001.01,0000.82,0000.17,-000.14,0000.18,0000.28,0000.45,0000.28,0000.17,17.0,23.4,06.4,04.3,0676.9,30.9
2021-06-05T09:06:00Z,00000200,00000000,0000.89,0000.98,0000.56,0000.53,-000.09,0000.33,0000.47,0000.26,0000.45,17.0,23.4,06.4,04.3,0676.9,30.9
2021-06-05T09:07:00Z,00000200,00000000,0000.63,0000.71,0000.21,0000.26,0000.36,-000.14,0000.24,0000.66,-000.01,17.0,23.4,06.5,04.3,0676.9,30.9
2021-06-05T09:08:00Z,00000200,00000000,0000.44,0001.02,0000.26,0001.03,0000.15,0000.20,0000.57,0000.42,0000.97,17.0,23.4,06.5,04.4,0676.9,30.9
2021-06-05T09:09:00Z,00000200,00000000,0000.98,0001.08,0000.33,0000.76,0000.26,0000.14,-000.03,0000.02,-000.20,17.0,23.4,06.5,04.4,0676.9,30.9
2021-06-05T09:10:00Z,00000200,00000000,0001.74,0000.79,0000.26,0000.16,0000.54,-000.17,0000.40,0000.61,0000.15,17.0,23.4,06.5,04.4,0676.9,30.9
2021-06-05T09:11:00Z,00000200,00000000,0000.47,0001.03,0000.46,0000.37,0000.60,0000.30,0000.68,0000.26,0000.44,17.0,23.4,06.5,04.4,0676.9,30.9
2021-06-05T09:12:00Z,00000200,00000000,0001.90,0001.03,0000.47,0000.79,0000.28,0000.19,0000.31,0000.24,-000.18,17.0,23.4,06.5,04.4,0676.9,30.9
2021-06-05T09:13:00Z,00000200,00000000,0001.58,0001.02,0000.26,0001.17,0000.52,0000.14,0000.50,0000.59,0000.75,17.0,23.4,06.3,04.3,0676.9,30.9
2021-06-05T09:14:00Z,00000200,00000000,0001.28,0001.26,0000.35,0000.84,0000.43,0000.13,0000.19,0000.34,-000.05,17.0,23.4,06.5,04.4,0676.9,30.9
2021-06-05T09:15:00Z,00000200,00000000,0001.08,0000.92,0000.35,0000.43,0000.19,0000.19,0000.40,0000.39,0000.48,17.0,23.4,06.5,04.4,0676.9,30.9
2021-06-05T09:16:00Z,00000200,00000000,0001.23,0000.96,0000.50,0000.55,0000.49,0000.21,0000.54,0000.59,0000.44,17.0,23.4,06.5,04.4,0676.9,30.9
2021-06-05T09:17:00Z,00000200,00000000,0000.95,0001.02,0000.45,0000.59,0000.18,0000.07,0000.34,0000.20,0000.12,17.1,23.4,06.5,04.4,0676.8,30.9
2021-06-05T09:18:00Z,00000200,00000000,0001.73,0001.19,0000.51,0000.69,0000.46,0000.02,0000.59,0000.36,0000.11,17.0,23.4,06.6,04.4,0676.8,30.9
2021-06-05T09:19:00Z,00000200,00000000,0001.49,0000.97,0000.32,0000.27,0000.03,-000.09,0000.36,0000.47,0000.53,17.1,23.4,06.6,04.5,0676.8,30.9
2021-06-05T09:20:00Z,00000200,00000000,0001.20,0001.01,0000.45,0000.54,0000.22,0000.16,0000.41,0000.21,0000.01,17.1,23.4,06.6,04.5,0676.8,30.9
2021-06-05T09:21:00Z,00000200,00000000,0001.21,0000.95,0000.08,0000.01,0000.23,0000.13,0000.51,0000.47,0000.42,17.1,23.4,06.6,04.5,0676.8,30.9
2021-06-05T09:22:00Z,00000200,00000000,0001.58,0000.94,0000.45,0000.40,0000.45,0000.16,0000.35,0000.20,0000.15,17.1,23.4,06.6,04.5,0676.9,30.9
2021-06-05T09:23:00Z,00000200,00000000,0001.30,0000.59,0000.23,0000.62,0000.12,0000.07,0000.31,0000.81,0000.75,17.1,23.4,06.7,04.5,0676.9,30.9
2021-06-05T09:24:00Z,00000200,00000000,0001.51,0001.15,0000.64,0000.55,0000.41,0000.11,0001.00,0000.45,0000.23,17.1,23.4,06.7,04.5,0676.9,30.9
2021-06-05T09:25:00Z,00000200,00000000,0001.65,0001.12,0000.44,0000.44,0000.18,0000.12,-000.09,0000.21,0000.36,17.1,23.4,06.7,04.5,0676.9,30.9
2021-06-05T09:26:00Z,00000200,00000000,0001.45,0000.99,0000.29,0000.94,0000.16,0000.00,0000.56,0000.29,0000.35,17.1,23.4,06.8,04.6,0676.9,30.9
2021-06-05T09:27:00Z,00000200,00000000,0001.63,0000.80,0000.23,0000.39,0000.44,0000.14,0000.60,0000.72,-000.04,17.1,23.4,06.9,04.7,0676.9,30.9
2021-06-05T09:28:00Z,00000200,00000000,0001.26,0001.33,0000.60,0000.60,0000.28,0000.18,-000.16,-000.12,0000.37,17.1,23.4,06.8,04.6,0676.8,30.9
2021-06-05T09:29:00Z,00000200,00000000,0000.88,0000.99,0000.23,0000.06,0000.25,0000.35,0000.87,0000.39,0000.52,17.1,23.4,06.9,04.7,0676.8,30.9
2021-06-05T09:30:00Z,00000200,00000000,0001.87,0001.22,0000.30,0000.80,0000.28,0000.23,0000.38,0000.59,0000.38,17.1,23.4,06.8,04.6,0676.8,30.9
2021-06-05T09:31:00Z,00000200,00000000,0001.69,0000.80,0000.42,0000.32,0000.42,-000.25,0000.31,-000.02,-000.16,17.1,23.4,06.7,04.6,0676.8,30.9
2021-06-05T09:32:00Z,00000200,00000000,0000.88,0000.92,0000.09,0000.56,0000.49,-000.12,0000.08,0000.43,0000.26,17.1,23.4,06.7,04.5,0676.8,30.9
2021-06-05T09:33:00Z,00000200,00000000,0001.27,0001.11,0000.30,0000.90,0000.26,-000.17,0000.55,0000.31,0000.53,17.1,23.4,06.8,04.6,0676.8,30.9
2021-06-05T09:34:00Z,00000200,00000000,0000.89,0001.03,0000.23,0000.54,0000.29,0000.18,-000.09,0000.41,0000.04,17.1,23.4,06.8,04.6,0676.8,30.9
2021-06-05T09:35:00Z,00000200,00000000,0001.65,0000.91,0000.22,0000.67,0000.50,0000.12,0000.38,0000.19,0000.01,17.1,23.4,06.5,04.4,0676.8,30.9
2021-06-05T09:36:00Z,00000200,00000000,0000.62,0000.83,0000.30,0000.60,0000.32,-000.16,0000.27,0000.08,0000.31,17.1,23.4,06.7,04.5,0676.8,30.9
2021-06-05T09:37:00Z,00000200,00000000,0000.45,0000.61,0000.31,0000.23,0000.36,0000.07,0000.29,0000.34,0000.19,17.1,23.4,06.5,04.4,0676.8,30.9
2021-06-05T09:38:00Z,00000200,00000000,0001.24,0000.90,0000.27,0001.11,0000.19,0000.16,0000.22,0000.18,0000.30,17.1,23.4,06.5,04.4,0676.8,30.9
2021-06-05T09:39:00Z,00000200,00000000,0000.85,0000.75,0000.37,0000.30,0000.20,0000.16,0000.61,0000.60,0000.13,17.1,23.4,06.5,04.4,0676.8,30.9
2021-06-05T09:40:00Z,00000200,00000000,0001.06,0000.70,0000.31,0000.73,0000.57,-000.24,0000.02,-000.03,0000.11,17.1,23.4,06.6,04.5,0676.8,30.9
2021-06-05T09:41:00Z,00000200,00000000,0000.99,0000.75,0000.33,0000.56,0000.16,0000.01,0000.52,0000.04,0000.21,17.1,23.4,06.5,04.4,0676.8,30.9
2021-06-05T09:42:00Z,00000200,00000000,0001.30,0000.70,0000.19,0000.64,0000.09,0000.03,0000.20,0000.68,0000.26,17.1,23.4,06.4,04.4,0676.8,30.9
2021-06-05T09:43:00Z,00000200,00000000,0000.49,0000.91,0000.28,0000.35,0000.17,0000.08,0000.22,0000.33,0000.15,17.1,23.4,06.5,04.4,0676.8,30.9
2021-06-05T09:44:00Z,00000200,00000000,0000.95,0001.10,0000.24,0000.25,0000.52,-000.08,0000.63,0000.40,0000.45,17.1,23.4,06.6,04.5,0676.8,30.9
2021-06-05T09:45:00Z,00000200,00000000,0000.88,0001.07,0000.18,0000.82,0000.19,0000.13,0000.15,0000.12,-000.02,17.1,23.4,06.7,04.5,0676.8,30.9
2021-06-05T09:46:00Z,00000200,00000000,0001.17,0000.93,0000.32,0000.87,0000.31,0000.01,0000.58,0000.40,0000.58,17.1,23.4,06.6,04.5,0676.8,30.9
2021-06-05T09:47:00Z,00000200,00000000,0001.41,0000.78,0000.25,0001.17,0000.39,0000.18,0000.49,0000.43,-000.02,17.1,23.4,06.6,04.5,0676.8,30.9
2021-06-05T09:48:00Z,00000200,00000000,0001.35,0000.71,0000.27,0000.38,0000.08,0000.11,0000.30,0000.45,0000.37,17.1,23.4,06.6,04.5,0676.8,30.9
2021-06-05T09:49:00Z,00000200,00000000,0001.79,0000.80,0000.45,0000.42,0000.29,0000.14,-000.09,-000.05,0000.30,17.1,23.4,06.7,04.5,0676.8,30.9
2021-06-05T09:50:00Z,00000200,00000000,0000.97,0001.02,0000.07,0000.57,0000.16,-000.19,0000.67,0000.41,0000.07,17.2,23.4,06.6,04.5,0676.8,30.9
2021-06-05T09:51:00Z,00000200,00000000,0001.10,0000.67,0000.19,0000.64,0000.35,0000.16,0000.55,0000.51,0000.60,17.2,23.4,06.6,04.5,0676.8,30.9
2021-06-05T09:52:00Z,00000200,00000000,0000.77,0000.86,0000.23,0000.34,0000.22,0000.09,0000.48,0000.82,0000.24,17.2,23.4,06.8,04.6,0676.8,30.9
2021-06-05T09:53:00Z,00000200,00000000,0001.13,0000.88,0000.10,0000.70,0000.38,0000.02,0000.52,0000.24,0000.31,17.2,23.4,06.9,04.7,0676.8,30.9
2021-06-05T09:54:00Z,00000200,00000000,0000.98,0000.78,0000.34,0000.63,0000.31,0000.28,0000.36,0000.22,0000.38,17.2,23.5,07.0,04.7,0676.8,30.9
2021-06-05T09:55:00Z,00000200,00000000,0000.55,0000.92,0000.14,0000.56,0000.50,0000.25,0000.69,0000.60,0000.30,17.2,23.4,07.1,04.8,0676.8,30.9
2021-06-05T09:56:00Z,00000200,00000000,0000.74,0000.79,0000.59,0000.39,0000.40,0000.14,0000.39,0000.63,0000.29,17.2,23.4,07.1,04.8,0676.9,30.9
2021-06-05T09:57:00Z,00000200,40000000,,,,,,,-000.02,-000.25,-000.07,17.2,23.5,07.1,04.8,0676.8,30.9
2021-06-05T09:58:00Z,00000200,60000000,,,,,,,0000.08,0000.04,0000.27,17.0,23.6,07.0,04.6,0675.9,30.9
2021-06-05T09:59:00Z,00000200,20000000,,,,,,,-000.11,0000.10,-000.23,17.0,23.7,07.0,04.6,0675.9,30.9
